Wind_Speed
24 25 26 27 28 29 29 29 28 27 26 25 23 23 22 21 21 20 20 19 19 19 19 19 19 19 18 18 18 19 20 22 26 23 17 17 25 28 28 30 32 33 29 23 18 13 8 4 4 7 11 14 16 19 21 25 28 31 32 32 31 30 29 29 30 30 30 31 31 32 33 33 34 35 36 36 37 38 39 40 41 41 41 41 41 41 41 42
37 36 36 35 34 33 32 30 29 27 26 24 23 22 21 21 20 19 18 18 18 18 18 18 19 18 18 17 17 17 17 22 26 20 17 21 24 24 26 28 30 32 33 31 28 24 18 11 6 3 4 6 8 10 12 15 18 22 25 27 27 26 26 27 27 28 29 30 31 32 33 33 34 34 35 35 36 37 38 39 40 42 42 42 42 42 42 43
40 39 37 35 33 32 30 29 27 26 25 23 22 21 20 20 19 18 18 17 17 17 17 17 17 17 16 16 17 16 17 23 22 14 15 20 21 22 24 25 28 30 31 33 34 32 27 21 16 11 7 5 2 2 5 8 10 14 17 20 22 23 24 25 26 27 28 30 31 31 32 32 32 32 33 33 33 34 35 37 38 40 41 41 42 42 42 43
37 35 34 32 31 29 28 27 26 24 23 22 21 20 19 19 18 17 17 17 17 17 16 16 16 16 15 15 15 13 17 21 15 11 15 19 19 20 22 23 26 27 29 31 33 33 31 29 26 22 18 13 9 6 2 2 4 7 10 14 17 19 22 23 26 27 28 29 29 29 30 30 30 31 31 32 32 32 33 34 36 37 38 40 40 41 41 42
34 32 31 30 29 28 27 26 24 23 22 21 20 19 19 18 18 18 17 17 17 16 16 16 15 15 15 15 13 9 16 21 15 14 17 17 17 18 19 22 23 25 27 29 29 30 31 30 30 30 27 23 18 14 10 6 3 2 4 7 10 14 17 19 21 23 25 26 27 28 30 31 31 32 32 32 33 33 33 34 35 36 37 38 39 40 41 41
32 31 30 29 28 27 26 25 24 23 22 21 20 19 19 18 19 19 18 18 18 17 17 16 15 15 16 16 13 9 18 23 17 16 17 17 18 17 19 21 22 23 25 26 26 27 27 27 29 30 30 28 25 22 19 15 12 8 5 3 4 7 9 12 15 18 20 22 24 26 28 29 30 31 32 32 33 33 34 34 35 36 37 38 39 40 40 41
32 31 29 28 27 26 25 24 23 23 22 21 21 20 20 20 20 19 19 19 19 19 18 17 17 18 19 17 13 15 22 22 18 17 17 18 18 18 19 21 22 22 23 24 24 24 24 25 25 26 28 28 26 26 24 22 20 17 14 11 8 6 4 4 6 9 12 15 17 20 22 24 26 27 28 30 31 32 33 33 34 35 36 37 38 39 40 40
31 30 29 28 27 26 26 25 24 24 23 23 22 22 21 20 20 20 20 20 20 20 19 19 19 18 18 15 14 20 23 20 18 18 19 19 19 19 21 22 22 21 22 21 22 23 23 22 21 23 25 24 22 24 24 23 22 21 20 18 16 14 12 9 7 5 5 5 7 10 12 15 17 20 22 24 26 28 30 31 32 34 35 36 37 38 39 40
31 30 29 29 28 27 26 26 25 24 24 23 22 22 21 21 21 21 20 20 20 20 19 20 19 17 16 15 18 23 22 19 18 19 20 20 19 20 22 22 21 21 21 21 23 24 22 21 19 20 22 20 20 21 21 21 20 20 19 18 17 16 15 14 12 11 10 8 7 5 5 6 8 10 12 15 17 19 22 24 27 29 31 33 35 36 37 39
31 30 29 28 28 27 26 25 24 24 23 23 22 22 22 22 22 21 21 21 21 20 20 19 19 19 18 19 23 22 20 19 20 21 21 20 21 23 23 21 21 21 21 21 22 21 20 20 18 20 20 17 19 19 19 19 18 17 17 16 15 14 14 13 12 12 11 10 9 8 7 7 7 7 8 9 10 11 13 15 17 20 23 25 28 31 33 35
31 30 30 29 28 27 26 25 24 24 24 23 23 23 23 23 23 23 23 23 22 21 21 20 21 21 20 23 24 20 20 22 22 22 22 22 23 23 21 21 21 22 21 21 20 18 18 17 17 19 17 16 19 19 18 17 15 15 14 14 13 12 12 11 10 10 9 9 8 8 8 8 9 9 10 10 11 12 13 13 14 15 16 18 20 22 24 27
31 30 29 29 28 27 27 26 25 25 24 24 24 24 24 23 23 23 23 23 23 22 22 22 23 22 22 25 23 20 22 23 22 22 22 23 23 21 21 21 21 21 21 20 20 19 18 17 18 18 16 17 19 18 17 16 15 15 13 12 12 11 11 10 9 9 9 9 9 9 9 9 10 10 11 12 13 14 15 16 16 17 18 18 19 20 21 22
29 29 28 28 27 27 26 26 25 25 25 24 24 24 24 23 23 23 23 23 23 23 22 23 23 23 24 24 21 22 23 21 21 22 23 23 22 22 22 22 22 22 21 21 21 20 19 19 19 19 18 19 18 16 16 15 15 14 13 13 12 11 10 10 10 10 10 11 11 12 12 12 12 13 14 14 15 16 17 18 18 19 20 21 21 22 23 23
28 27 27 27 26 26 25 25 25 25 24 24 24 24 24 23 23 23 23 23 24 23 23 23 23 23 24 22 22 22 22 22 23 24 24 24 23 24 24 24 24 24 24 24 23 23 22 22 22 21 22 21 20 19 18 17 17 16 15 15 14 13 12 12 12 12 12 13 14 15 15 16 15 16 17 18 18 19 20 20 21 22 23 23 23 24 25 26
27 26 26 26 25 25 25 24 24 24 23 24 23 23 23 22 22 23 23 23 23 22 22 23 23 23 23 22 22 22 23 24 25 25 25 24 25 26 26 26 25 26 26 25 25 26 26 24 23 23 24 24 23 21 20 19 19 18 17 16 15 15 15 15 15 15 15 15 17 18 18 19 19 19 20 20 22 23 23 24 24 25 26 26 26 27 28 28
26 25 25 25 25 24 24 24 23 23 23 22 22 22 21 21 22 21 21 22 21 21 22 22 22 22 22 21 22 24 24 23 23 23 24 25 25 25 25 25 25 26 26 25 25 25 25 25 23 22 23 25 24 23 22 22 22 21 21 20 19 19 18 18 18 18 18 17 18 21 21 21 22 23 23 23 24 25 26 27 27 28 28 29 29 30 31 31
24 24 24 24 24 23 23 23 23 22 22 21 21 21 21 22 21 20 21 21 20 20 21 21 22 22 21 22 22 22 21 21 21 22 22 23 23 23 23 23 23 24 23 23 23 23 23 23 21 20 22 23 23 22 22 22 23 23 23 23 23 23 23 22 22 21 21 20 20 22 23 24 24 26 26 27 27 27 28 29 30 31 31 32 32 32 33 34
23 23 23 23 23 22 22 21 21 21 21 20 20 20 20 20 20 20 20 18 19 21 22 22 22 21 21 21 20 19 19 19 19 19 20 20 21 21 20 21 21 20 20 21 21 21 20 19 20 21 22 21 20 20 20 20 20 20 21 21 21 21 22 23 23 23 23 22 22 23 25 26 26 27 28 29 30 30 31 32 32 33 33 34 34 34 35 36
21 21 22 22 22 21 21 21 20 20 20 20 20 19 19 18 19 19 19 19 21 22 20 21 20 19 19 20 18 18 19 18 17 17 18 19 19 18 18 19 18 18 20 21 21 20 18 20 23 23 21 20 20 21 21 21 20 20 20 20 21 21 21 21 21 23 23 23 22 23 24 25 26 27 27 28 29 30 31 33 35 36 36 36 37 37 38 38
19 19 20 20 20 20 20 20 20 20 19 19 19 19 18 18 19 19 19 21 20 18 17 19 20 19 20 19 18 18 18 16 16 17 17 17 17 17 17 17 17 19 19 19 19 19 20 23 25 22 22 23 24 24 24 24 24 23 23 23 24 24 23 22 21 21 23 24 24 25 25 26 26 26 27 27 28 29 30 32 34 36 38 38 39 40 40 40
18 18 18 18 18 19 19 19 19 19 18 18 18 18 18 18 18 19 20 20 18 18 19 20 21 21 21 19 19 17 15 14 16 17 16 15 15 16 16 16 17 17 16 17 18 19 22 24 23 23 24 25 26 26 27 27 27 27 27 27 26 26 25 25 24 23 24 25 27 28 28 29 29 29 29 29 30 30 31 32 34 36 37 39 40 41 42 43
16 17 17 17 17 18 18 18 18 18 18 18 17 17 17 17 17 18 18 18 18 19 19 20 21 22 22 21 20 19 17 17 18 17 16 15 15 15 15 15 16 16 16 19 20 21 23 23 23 25 25 25 26 27 28 28 29 29 30 30 28 27 27 27 27 27 27 28 29 30 30 30 31 31 32 33 34 34 34 35 35 37 38 39 40 41 43 43
15 16 16 16 17 17 18 18 18 18 18 18 16 16 17 17 17 17 18 18 19 20 20 20 21 22 22 21 21 20 19 18 17 16 16 15 15 15 15 16 17 18 19 20 20 22 22 23 25 25 25 26 27 28 29 29 30 31 32 32 31 29 29 28 28 28 29 29 29 30 31 32 32 33 34 35 36 36 37 37 38 39 39 40 40 40 41 42
14 14 15 16 16 17 17 18 17 18 18 17 17 16 17 17 17 17 17 18 19 20 21 21 21 22 22 21 20 19 18 17 17 16 15 15 15 15 16 17 18 19 19 19 20 22 23 24 25 25 26 27 28 29 30 30 32 32 33 33 32 31 31 30 30 30 30 30 30 29 31 32 33 35 36 36 37 37 38 38 38 38 38 38 38 38 39 40
13 13 14 14 15 16 16 16 16 17 17 17 17 17 17 17 18 18 17 18 19 19 20 21 22 22 22 21 20 19 18 18 17 16 15 15 15 15 16 17 18 18 18 19 21 22 24 25 25 25 26 27 28 30 31 31 32 32 33 33 33 32 32 32 31 31 31 32 32 31 33 34 35 36 37 38 39 39 39 39 38 37 36 36 36 36 37 37
12 13 13 13 14 15 15 15 16 16 16 16 17 17 17 17 17 18 17 18 19 19 20 21 21 22 22 22 21 19 18 17 16 15 15 16 16 15 16 17 17 18 19 20 21 22 23 24 25 25 27 28 30 31 32 33 33 33 34 34 33 33 32 33 33 33 33 34 35 35 36 37 37 38 38 39 40 40 40 40 39 39 38 37 36 36 34 33
13 13 13 14 14 14 15 15 15 15 15 16 16 16 16 17 17 17 18 17 18 19 19 19 20 21 22 22 21 19 18 17 17 17 17 16 16 16 16 16 17 18 19 20 21 23 24 25 25 26 27 29 31 32 33 34 34 36 36 36 36 35 35 34 35 35 35 36 37 37 38 39 39 39 39 39 39 39 39 38 38 38 38 37 36 35 33 33
13 14 14 14 15 15 15 16 16 16 16 16 17 17 17 17 17 18 18 18 18 19 18 19 20 21 22 22 22 21 20 19 19 18 16 15 16 16 16 17 18 18 19 21 22 23 24 25 26 26 27 30 31 33 35 35 36 37 39 39 39 38 37 37 37 37 38 38 39 39 39 40 40 39 38 38 38 38 37 36 36 35 34 34 34 34 33 32
13 14 15 15 15 16 16 16 17 17 17 17 18 18 18 19 19 19 20 19 19 19 19 19 20 21 21 21 22 22 21 19 17 15 14 14 16 16 16 17 19 19 20 21 22 23 24 24 25 26 28 30 31 34 35 36 37 39 40 41 42 42 40 39 39 39 40 40 40 40 40 40 40 39 38 37 37 36 35 34 34 33 33 33 33 33 32 31
14 15 16 16 16 16 16 16 16 17 17 18 18 19 19 19 19 20 20 20 20 20 20 20 20 20 21 22 23 23 22 20 17 16 15 14 14 15 17 20 21 21 20 21 22 23 23 24 25 27 28 30 32 33 35 36 38 40 41 43 44 44 42 41 41 41 41 42 42 42 42 42 40 38 38 37 36 35 34 33 32 32 32 32 32 32 31 31
15 15 16 16 17 17 17 17 17 17 17 18 19 19 19 20 20 20 20 20 20 21 21 21 21 21 22 22 22 23 22 22 21 20 19 19 19 20 21 21 21 21 20 21 22 23 23 24 26 28 29 30 32 33 35 37 39 41 43 45 45 44 43 43 43 44 45 45 44 44 44 42 40 39 38 37 35 34 33 32 32 32 32 31 30 29 29 28
15 15 16 16 17 17 17 17 17 17 17 18 19 19 19 20 20 20 21 20 20 21 21 21 21 21 21 21 21 21 22 21 20 20 18 18 17 17 17 17 18 19 20 20 21 23 24 25 26 28 29 31 32 33 35 37 39 41 43 44 45 45 45 45 45 46 47 47 46 45 44 41 39 38 37 36 34 33 32 32 32 32 30 28 27 27 26 26
15 15 16 17 17 17 17 17 17 18 18 18 18 19 19 19 19 20 20 20 21 21 21 20 20 20 20 20 20 21 21 20 20 19 18 17 16 15 16 17 19 20 20 21 22 23 24 25 27 28 29 31 33 34 36 38 39 41 43 45 46 46 46 46 46 47 48 48 47 45 43 40 38 37 36 34 33 33 32 31 30 28 27 26 25 26 26 27
15 15 16 17 17 17 17 17 18 18 18 18 18 18 19 19 19 20 20 20 20 20 20 20 20 19 19 20 20 21 21 21 20 20 19 19 19 19 19 19 20 21 22 22 22 23 25 26 28 29 30 32 34 35 37 39 41 42 44 46 46 46 47 48 48 49 49 48 46 44 41 39 37 35 34 33 32 32 31 28 27 26 26 26 26 27 28 28
15 16 16 17 17 17 17 17 18 17 17 17 18 18 19 19 20 20 20 20 20 20 20 20 20 19 19 20 21 21 22 21 21 20 20 19 19 19 19 19 20 21 22 22 23 25 26 27 29 30 31 33 35 36 38 40 41 43 45 46 46 47 48 49 50 50 49 48 45 43 41 38 36 34 32 32 31 29 27 26 27 27 27 27 27 28 28 29
15 15 16 17 17 17 18 17 17 17 17 17 18 18 19 19 20 20 20 20 20 20 20 20 20 20 20 21 21 22 22 22 21 21 20 19 19 19 19 20 20 21 22 24 25 27 28 28 30 31 32 34 35 37 39 41 42 44 45 46 46 48 49 50 51 50 49 47 44 42 41 37 35 32 29 28 27 26 27 28 30 29 27 27 27 28 29 30
15 15 16 17 17 17 17 17 17 17 17 17 18 18 19 19 20 20 20 20 20 20 20 20 20 20 20 21 22 22 23 22 22 21 21 20 20 20 20 21 21 22 23 25 26 29 30 29 30 32 33 35 36 37 39 42 43 44 45 46 47 49 50 51 51 50 49 47 43 42 41 37 32 28 25 25 26 27 30 31 30 29 28 28 28 29 30 32
16 16 16 17 17 17 17 17 17 17 17 18 18 19 19 20 20 20 20 20 20 20 20 20 20 20 20 21 22 23 23 23 22 22 22 21 21 22 22 23 23 22 23 26 28 30 31 30 30 32 33 35 37 38 40 42 43 44 45 47 48 50 51 52 52 51 49 46 42 40 38 34 28 25 25 27 29 30 32 31 30 28 28 28 28 29 31 33
17 17 17 17 17 17 17 17 17 18 18 18 19 19 20 20 20 20 20 20 20 20 20 20 20 20 20 21 22 23 23 23 23 23 23 23 23 24 24 24 24 23 24 26 28 30 31 31 31 32 34 35 37 38 40 41 42 43 44 46 49 51 52 52 52 51 49 45 42 38 34 30 26 26 29 31 32 32 32 30 29 28 28 28 29 31 33 36
17 17 18 17 17 17 17 17 18 18 18 19 20 20 21 21 21 21 20 20 20 20 20 20 20 20 20 20 21 22 23 23 23 23 23 23 24 24 25 25 24 23 24 26 28 30 31 31 31 32 33 35 36 37 39 40 41 42 44 46 49 51 52 53 52 51 48 45 41 37 31 28 27 28 32 33 33 32 31 29 29 29 29 29 31 34 36 37
19 18 18 18 18 18 18 18 19 19 20 20 21 21 22 22 22 22 21 21 21 21 20 20 21 21 21 21 21 22 23 24 24 23 24 24 25 25 26 25 24 24 26 28 29 30 31 31 31 31 32 34 35 36 38 40 40 42 44 47 49 51 53 53 52 50 47 44 39 34 29 27 28 30 33 33 32 31 30 30 29 29 31 32 34 36 37 38
20 19 19 19 19 19 19 20 20 21 21 21 22 22 22 23 23 23 22 22 22 21 21 21 21 21 21 21 22 23 24 25 25 25 25 25 26 26 26 26 24 25 27 29 30 30 31 31 31 31 32 34 35 36 37 39 40 41 44 47 49 51 53 53 52 49 45 42 37 31 28 28 29 32 34 32 30 30 30 31 31 32 34 36 36 37 37 37
21 21 20 20 20 20 20 21 22 22 23 23 23 23 23 24 24 24 23 23 23 23 22 22 21 22 22 23 23 24 25 26 27 27 27 27 27 27 27 26 25 26 29 30 31 31 31 31 32 32 32 34 35 35 36 38 40 42 44 46 48 51 52 52 51 48 43 40 36 29 27 30 31 31 31 29 28 30 31 32 33 34 34 35 35 36 36 37
22 22 21 21 21 22 22 22 23 24 24 24 24 23 24 24 25 24 24 24 25 24 24 23 22 22 23 24 24 25 26 27 28 29 29 29 29 29 28 27 27 28 30 31 32 32 32 33 34 33 33 34 35 36 36 37 40 42 43 44 47 50 52 51 50 47 42 37 33 28 26 29 31 29 28 28 29 30 32 33 33 33 34 34 35 36 37 37
24 23 23 23 22 23 23 24 24 25 25 25 24 24 23 24 24 25 25 25 25 25 25 24 24 24 24 25 25 26 27 28 29 29 30 30 30 30 29 29 29 30 31 32 32 32 32 32 34 34 34 35 37 37 37 38 39 40 41 43 46 49 51 51 49 46 42 35 31 28 26 27 27 26 27 28 29 30 32 32 32 33 33 34 35 37 37 38
25 25 24 24 24 24 24 24 25 25 25 25 25 24 23 23 24 24 24 25 25 25 25 25 25 25 25 25 26 27 28 29 30 30 30 31 31 31 31 30 30 31 32 32 33 32 31 30 32 34 34 34 36 37 37 37 37 38 40 43 46 48 50 50 49 46 41 35 29 26 25 23 23 25 26 27 29 31 31 31 31 33 34 36 37 38 38 39
27 26 26 26 26 25 25 25 26 26 25 25 24 23 22 23 23 23 24 24 24 25 25 25 25 25 26 26 27 28 29 30 30 31 31 31 31 32 31 31 32 32 32 33 33 32 30 29 30 32 33 32 34 36 37 37 37 37 39 43 46 48 50 50 48 45 40 32 24 22 23 22 21 23 27 28 29 30 31 32 33 35 36 37 37 38 40 41
29 28 27 27 27 27 26 25 26 25 25 24 24 23 22 22 23 22 23 23 24 24 25 25 25 26 26 27 28 29 30 30 31 31 32 32 32 32 32 33 33 33 33 33 33 32 31 29 29 31 32 31 33 36 37 36 36 37 39 44 46 48 49 49 47 44 36 27 21 21 22 22 21 23 26 28 29 30 32 33 35 36 37 37 38 40 42 43
29 29 28 27 28 27 26 25 25 24 23 23 23 23 22 22 22 22 22 23 24 25 25 26 26 26 27 28 28 29 30 31 32 32 32 32 32 32 33 33 34 34 34 34 34 33 31 30 29 29 30 31 32 35 37 36 36 37 40 44 46 48 49 47 46 42 32 23 21 22 21 22 23 23 24 26 28 31 34 36 37 38 38 39 41 42 43 45
28 28 27 27 26 26 25 25 24 23 22 23 24 23 22 21 21 22 23 24 26 26 26 26 27 27 28 28 29 30 31 32 32 33 33 32 32 33 33 34 34 35 34 34 33 33 31 31 31 29 29 30 31 34 37 36 35 37 41 44 46 47 47 46 45 39 28 21 23 22 20 21 23 24 24 26 29 33 36 38 39 39 40 41 42 43 45 46
26 25 25 25 24 23 23 24 23 23 23 23 24 23 22 21 22 23 24 25 27 27 27 27 28 28 29 30 30 30 31 32 32 32 32 32 33 33 34 34 35 35 35 33 33 32 31 31 32 29 28 30 31 34 36 35 35 38 40 43 45 46 45 43 43 35 25 22 24 22 21 22 23 24 25 27 30 34 37 39 39 39 41 42 44 46 47 48
22 22 22 23 23 22 23 24 24 23 23 23 24 23 23 23 24 25 27 27 27 27 27 28 29 30 31 31 31 31 31 32 31 32 32 32 33 33 34 35 35 35 34 33 33 32 31 31 32 30 29 30 32 35 36 35 35 38 40 42 44 46 44 41 40 33 24 23 25 22 22 23 24 26 28 28 31 35 38 39 39 40 43 45 47 48 48 49
Wind_Direction
105 104 103 102 102 103 103 103 103 103 103 102 99 97 95 92 90 87 84 79 76 75 73 72 69 64 58 54 50 51 54 54 55 43 19 28 35 33 33 35 38 36 34 35 38 35 24 355 293 268 259 257 257 254 252 253 253 253 252 253 255 256 257 258 258 258 257 257 258 258 258 259 260 260 261 262 262 262 262 263 265 266 267 267 267 267 266 266
98 99 100 100 101 101 101 101 101 100 99 98 96 95 92 89 86 82 78 74 71 68 66 66 64 61 55 51 45 42 45 49 48 30 11 28 31 26 28 32 36 37 36 39 44 45 44 40 29 347 292 276 268 262 259 258 256 255 255 255 256 256 257 258 258 258 257 257 257 258 258 260 261 262 263 263 263 263 264 264 265 266 268 269 269 269 269 268
95 96 97 98 98 98 98 98 97 96 94 93 91 88 85 82 78 74 70 67 64 61 59 58 58 55 48 45 39 30 33 40 38 17 14 28 27 25 28 30 35 36 35 38 44 47 49 52 53 52 43 32 7 286 264 263 261 257 256 255 256 257 258 258 258 259 259 260 261 262 264 264 265 265 265 266 265 265 265 265 265 266 267 268 269 269 268 268
91 92 93 93 93 94 93 92 91 90 88 86 83 80 76 72 68 65 61 57 54 52 50 47 47 45 38 33 26 20 31 37 33 22 26 27 24 26 29 30 33 36 36 37 41 44 48 54 58 60 58 58 56 52 45 291 268 260 256 254 254 255 256 258 260 263 265 267 268 269 270 270 270 270 270 270 270 269 268 268 267 267 268 268 268 268 268 267
88 88 88 89 88 88 87 86 84 82 80 77 74 71 67 64 60 56 51 48 45 43 42 39 37 35 29 22 9 5 33 34 27 25 24 21 21 24 29 31 32 35 37 36 37 42 44 49 56 60 61 62 62 58 56 48 25 305 276 265 259 257 257 259 261 262 264 266 267 268 269 270 272 273 273 274 274 274 273 272 272 272 272 272 272 272 271 271
84 83 83 83 82 81 80 78 77 74 72 69 66 62 59 55 52 49 46 43 40 37 36 33 29 28 23 13 358 9 34 28 18 20 20 18 17 19 27 30 29 33 37 35 35 39 42 44 50 57 59 62 64 64 62 59 58 53 34 352 299 278 270 266 265 264 265 265 266 268 269 271 272 274 275 275 275 275 275 274 274 273 273 273 273 273 273 273
80 80 79 78 78 76 75 73 72 69 67 65 62 59 55 53 50 48 45 43 40 36 33 30 26 27 22 10 6 30 35 23 15 20 21 21 19 20 26 27 26 29 33 35 32 34 40 42 45 52 56 58 60 64 65 64 64 64 60 56 48 32 360 314 292 282 278 275 274 274 274 274 274 275 275 275 275 275 275 274 273 273 272 272 271 271 271 271
78 77 76 76 75 73 72 70 69 67 65 63 61 59 57 55 52 49 47 43 40 36 32 30 28 28 24 14 23 37 31 19 18 23 23 22 21 23 27 27 24 26 30 32 33 32 34 38 42 48 53 54 54 59 62 62 62 63 63 62 60 56 52 46 37 19 351 317 300 289 283 281 280 280 279 278 279 278 278 277 276 275 274 273 272 271 271 271
76 75 74 73 72 70 69 68 66 65 63 61 60 59 58 56 53 50 48 44 42 38 34 33 31 31 27 22 34 36 26 19 22 24 24 21 21 24 26 24 23 25 27 27 30 30 29 30 35 43 48 50 50 53 56 57 57 57 58 58 57 55 53 50 47 43 37 29 19 0 334 317 305 296 291 288 286 284 284 282 280 279 278 277 276 275 274 274
75 75 74 73 71 70 69 67 66 64 63 62 61 59 57 55 54 51 49 47 44 41 38 37 35 34 30 31 37 34 25 25 26 26 25 22 23 25 23 21 21 24 24 25 27 27 27 28 31 38 40 42 46 47 48 51 50 50 52 51 50 49 47 45 41 37 32 26 22 16 6 356 345 332 320 313 307 303 298 294 290 286 283 281 280 278 277 277
77 76 75 74 73 72 70 69 67 66 64 63 62 60 58 56 55 53 51 49 46 44 42 39 38 38 34 35 38 32 27 28 27 26 26 24 25 25 23 22 22 24 24 25 25 23 26 27 29 34 32 33 40 40 39 41 43 44 44 43 43 39 37 35 30 24 19 11 2 354 348 342 337 330 323 320 316 313 310 307 304 299 296 292 288 285 282 280
79 78 77 76 74 73 72 70 68 67 66 64 63 61 59 57 56 54 52 50 48 46 43 42 42 39 36 39 38 32 30 29 27 28 27 27 26 25 24 24 24 25 25 25 24 22 23 24 28 30 25 29 34 32 31 31 33 34 31 31 32 29 24 20 15 8 359 353 343 335 330 324 319 315 311 308 307 305 303 302 301 300 298 297 295 292 290 287
77 76 75 73 73 72 71 70 69 67 66 64 63 61 60 58 56 55 53 51 49 47 46 45 43 39 40 41 36 33 35 33 32 30 30 29 28 25 25 25 25 25 25 26 24 22 23 24 27 27 24 28 29 26 25 23 23 23 20 18 17 15 11 6 1 354 347 340 333 326 321 317 313 310 306 303 302 300 298 297 296 295 294 293 293 292 291 290
72 71 70 69 69 68 67 67 66 66 65 64 63 61 59 57 55 54 52 50 48 47 46 45 44 42 42 41 37 37 38 35 32 31 31 30 28 26 25 24 25 25 25 25 23 22 23 23 24 24 24 25 22 21 20 16 15 14 10 8 4 0 357 354 349 345 342 337 330 323 319 317 315 312 309 306 303 300 298 297 296 295 293 292 292 291 290 290
70 69 68 67 66 65 65 65 64 63 63 62 61 60 58 57 55 52 50 48 47 46 44 44 43 40 40 39 36 33 31 30 30 29 29 27 25 25 23 22 22 23 22 21 21 22 22 21 21 24 25 23 21 20 19 17 16 13 8 5 2 358 353 349 345 341 338 335 328 321 318 317 315 312 309 306 303 302 301 299 298 296 295 294 292 291 290 290
69 68 67 66 65 64 63 63 62 62 61 60 59 59 57 56 53 51 49 47 45 43 41 41 39 37 38 35 30 28 29 30 28 27 25 23 23 22 21 20 19 20 19 18 20 20 20 19 19 22 23 22 20 19 17 17 16 14 12 8 5 4 0 355 351 345 339 336 331 322 320 319 315 311 308 306 304 303 302 301 299 298 297 295 293 291 290 289
66 66 65 64 64 62 61 60 60 60 59 58 57 55 53 52 50 49 48 45 43 42 40 38 36 34 32 29 28 30 30 28 25 23 23 22 21 21 19 17 17 17 17 18 20 20 19 19 20 22 24 20 17 15 14 13 12 10 10 7 3 1 0 357 354 348 341 341 337 328 325 323 318 316 314 312 310 307 304 302 300 300 299 297 294 292 291 290
64 63 62 61 61 60 59 58 57 56 56 56 56 55 52 50 48 46 45 43 41 41 38 36 35 32 29 30 32 32 29 26 24 22 22 22 21 22 20 18 19 18 19 22 23 24 22 20 21 24 26 21 18 18 16 14 13 10 8 5 1 359 357 354 352 346 340 339 335 330 328 324 321 319 317 315 313 311 308 305 304 303 301 298 296 294 293 292
62 61 60 59 59 58 57 56 55 54 53 52 52 53 52 49 47 45 43 40 39 37 35 35 36 32 31 31 29 29 30 28 26 26 26 25 24 25 24 23 22 22 26 27 28 29 23 21 25 27 27 24 22 22 20 19 18 15 12 7 4 3 359 355 351 344 338 336 331 328 328 324 320 316 314 312 310 309 307 306 306 305 303 300 299 297 296 295
60 59 58 57 57 56 56 55 54 52 51 50 49 49 48 46 44 43 40 39 39 36 34 35 34 31 31 31 29 29 28 26 26 29 29 29 28 27 29 28 27 29 32 32 34 31 23 25 29 28 25 21 20 20 18 18 16 15 14 10 6 4 0 356 353 347 341 337 334 333 332 327 323 318 313 310 307 304 302 302 302 301 300 300 300 299 298 298
55 54 54 54 53 53 53 53 52 51 50 49 48 47 46 44 41 40 38 37 37 34 32 32 30 28 28 28 30 31 29 28 30 30 30 31 30 30 31 31 33 37 39 38 35 28 25 29 28 22 18 15 14 14 14 13 11 10 9 9 6 2 358 355 354 351 345 341 339 338 336 332 329 324 320 315 311 307 304 300 297 296 296 297 298 298 299 299
49 48 48 47 47 47 47 48 48 47 48 46 45 44 43 42 40 39 37 35 33 32 31 30 28 26 25 24 25 26 27 28 28 28 28 28 30 34 36 38 40 40 37 34 30 26 28 27 21 16 15 13 13 12 12 11 9 8 6 6 6 3 359 354 352 350 347 343 341 339 336 332 329 326 323 319 316 313 309 304 301 298 296 296 296 296 297 297
43 42 41 41 42 42 42 42 42 41 41 39 38 38 38 39 37 36 34 31 31 30 28 27 26 25 24 23 23 24 26 27 27 27 26 26 29 33 35 36 36 33 32 30 27 26 26 21 16 13 12 13 15 14 13 13 11 10 8 5 5 4 1 356 351 348 346 342 339 337 334 331 328 325 322 319 316 313 310 307 304 301 299 297 296 296 295 295
38 37 37 36 37 38 38 38 38 37 36 34 32 31 32 33 32 31 29 28 28 27 25 23 23 23 23 22 24 25 26 26 27 27 27 28 32 32 32 32 31 31 30 28 25 22 20 17 14 11 11 14 15 15 15 14 13 11 8 5 2 360 357 354 350 346 343 338 335 333 331 329 326 322 320 317 314 312 309 307 303 300 299 298 298 297 296 296
31 31 31 32 32 33 34 34 34 33 32 30 28 26 25 26 27 26 24 24 24 23 23 22 21 22 22 23 25 25 25 25 26 26 27 30 33 33 31 30 30 29 27 24 21 19 17 15 11 9 11 14 16 16 15 14 13 11 7 4 360 356 354 351 347 343 339 335 334 331 329 326 321 319 317 315 312 310 308 305 304 303 303 302 301 300 300 301
20 22 23 24 25 27 28 28 28 28 27 26 24 22 21 21 21 21 19 20 20 19 20 21 21 21 22 24 25 25 26 26 25 24 27 28 28 29 30 28 27 25 21 19 18 17 15 12 10 9 11 14 16 16 15 13 11 9 6 1 358 355 352 348 344 340 337 335 333 331 327 323 319 317 315 311 309 307 305 304 305 305 306 306 307 308 310 310
10 11 13 15 16 18 20 21 22 21 20 19 18 17 16 16 16 15 15 16 17 17 17 18 20 22 23 25 24 24 25 25 23 22 23 22 21 23 25 24 23 21 17 15 15 13 10 8 9 10 11 14 16 15 13 11 9 7 4 0 358 354 350 346 343 340 337 334 333 330 326 322 318 316 313 310 308 307 307 307 308 308 309 312 315 317 319 319
2 3 5 7 9 10 11 13 14 14 12 11 12 11 11 11 10 10 11 11 12 13 14 15 17 20 23 24 24 24 24 23 21 19 16 13 15 16 14 15 18 17 13 13 12 9 7 7 9 10 12 15 15 14 12 9 7 5 2 360 357 353 350 346 343 340 337 334 332 329 325 321 318 316 314 312 311 312 313 314 314 315 317 319 320 321 322 324
355 356 359 1 3 4 6 6 7 7 5 4 5 5 5 6 6 5 6 6 7 8 9 11 13 17 19 20 22 23 23 22 19 16 11 8 10 8 3 8 12 11 10 8 6 6 6 6 7 8 11 12 11 11 10 8 6 3 1 359 355 352 349 346 343 339 336 334 332 329 325 322 321 320 318 317 318 319 320 320 321 322 322 324 324 325 326 327
349 351 354 355 357 358 359 0 0 0 359 359 360 0 0 1 1 1 1 2 3 4 5 7 9 12 14 16 18 18 18 17 14 10 8 7 5 1 1 6 6 4 4 2 2 3 3 3 5 5 7 7 7 8 8 7 5 2 360 357 354 352 348 345 342 339 337 335 333 331 327 326 326 324 323 323 324 325 324 325 326 328 329 330 330 329 329 329
345 348 350 351 352 353 353 353 353 354 355 354 355 356 356 357 357 357 357 358 360 1 1 3 5 7 9 12 13 13 12 11 8 5 2 360 358 358 1 2 359 357 358 359 1 0 359 0 1 2 2 2 4 6 6 6 3 1 359 356 353 351 348 345 342 339 338 336 335 333 329 327 327 326 325 325 327 327 327 329 331 333 333 332 331 330 330 329
342 343 345 347 347 348 348 348 348 348 350 351 351 352 352 353 354 354 353 355 356 358 359 0 2 4 6 7 8 8 9 7 5 4 0 356 353 352 355 355 355 357 357 357 358 357 357 357 357 359 0 1 2 4 6 5 2 0 358 354 352 349 347 345 342 339 338 337 335 332 329 328 328 326 325 327 328 329 330 333 335 335 334 333 332 331 330 329
338 339 341 342 343 344 344 344 343 344 346 347 347 348 348 350 352 351 351 352 353 354 356 357 359 0 1 2 2 3 3 2 1 360 357 353 350 349 351 352 354 355 355 356 357 356 355 353 354 358 358 359 1 2 3 2 359 357 354 351 350 347 345 343 341 339 338 336 334 330 328 328 327 326 326 328 330 332 335 338 338 337 335 334 332 331 330 331
334 336 337 337 339 340 340 340 340 341 342 343 343 344 345 347 349 349 349 350 350 350 352 354 355 356 357 357 358 358 358 358 357 355 354 353 352 352 351 350 350 351 353 356 356 355 353 352 353 355 355 357 359 360 360 359 357 355 353 352 351 347 345 344 341 340 338 336 333 330 328 328 326 326 328 330 332 335 339 341 339 337 336 334 333 332 333 335
329 330 330 331 334 335 336 337 337 338 340 340 341 342 343 345 346 347 347 347 347 347 348 350 351 353 354 355 356 356 355 356 355 354 352 351 350 350 348 348 348 349 352 354 354 353 352 352 352 353 354 356 358 359 359 358 357 355 355 354 352 348 347 344 341 340 337 335 333 330 328 329 328 330 332 333 335 339 341 342 340 338 337 335 334 334 336 338
322 323 324 326 329 331 333 334 334 335 337 338 338 339 341 342 343 344 345 344 344 344 345 347 348 350 352 353 353 354 356 355 354 353 351 349 347 346 347 347 347 348 350 352 353 352 352 353 352 352 354 356 357 358 359 358 357 356 356 354 352 349 347 344 341 339 337 335 334 331 330 331 333 335 337 338 339 342 343 342 341 339 338 335 335 338 340 340
316 318 319 322 325 327 329 331 331 332 333 334 335 336 337 338 339 341 341 341 341 341 342 343 345 346 349 351 353 354 356 355 354 353 351 348 346 345 345 346 346 347 347 349 351 351 351 353 353 352 353 355 356 357 359 358 356 356 356 354 353 350 347 344 340 338 337 335 335 334 332 335 339 342 345 345 344 344 344 343 341 339 338 337 338 340 340 341
312 314 316 319 321 324 326 326 327 328 329 330 331 331 332 333 335 336 338 338 338 338 339 340 341 343 345 348 352 354 355 355 355 354 350 347 346 346 346 346 346 346 346 348 349 350 350 352 353 353 353 353 354 356 358 357 357 356 356 355 355 351 347 344 341 339 337 335 336 336 335 339 348 350 350 348 345 344 344 342 340 339 339 339 339 340 341 343
308 310 312 315 317 320 322 322 323 324 325 326 325 326 326 327 329 331 333 335 334 335 336 337 338 339 340 344 349 352 353 353 354 353 350 346 345 345 345 345 346 345 346 348 349 350 350 350 352 352 351 350 352 355 356 356 356 356 357 357 355 351 347 344 341 339 338 336 337 338 339 345 353 352 349 347 345 344 343 341 341 342 341 339 340 341 342 343
305 306 308 311 313 315 317 319 319 320 320 321 321 321 322 322 324 327 329 330 330 331 332 333 335 335 336 339 343 347 349 349 351 351 349 345 344 343 343 344 345 345 346 348 350 351 350 348 350 351 349 349 351 354 354 354 355 356 358 358 355 350 346 344 341 340 339 338 338 340 343 347 350 348 346 345 343 342 342 343 345 344 342 342 342 343 343 342
300 301 304 307 309 311 313 315 316 316 316 316 317 318 318 319 320 322 324 325 326 326 328 329 331 331 331 333 336 341 344 345 347 348 347 345 343 342 341 343 345 345 346 348 350 351 348 347 348 350 348 348 350 352 352 352 354 356 358 358 354 350 346 343 342 340 339 337 339 342 343 344 346 344 343 343 343 342 344 347 348 346 345 346 344 343 342 340
296 298 300 302 305 307 309 311 312 312 313 313 313 314 315 316 317 318 320 321 322 323 324 326 327 327 328 329 331 335 339 341 343 345 344 343 342 341 340 341 344 345 346 347 349 350 348 345 345 347 347 346 348 351 349 350 353 356 358 358 355 350 345 342 341 340 339 337 338 343 343 340 343 342 342 345 345 345 347 350 350 349 347 346 343 341 339 337
293 295 296 298 300 302 305 307 308 309 310 309 309 310 311 313 314 316 317 319 320 321 322 323 324 325 326 327 329 332 335 338 340 341 342 341 340 340 340 340 343 344 346 347 347 347 346 343 342 345 346 344 346 349 347 348 353 356 358 357 355 349 343 341 341 340 340 338 337 342 343 339 341 344 344 347 348 347 350 351 351 349 346 343 340 338 337 336
290 292 294 295 296 299 301 303 305 307 308 308 306 306 307 310 312 314 317 318 319 320 321 321 321 322 324 325 327 330 332 334 336 338 339 339 339 339 339 339 340 343 344 345 345 345 344 342 339 341 343 341 344 348 347 348 352 356 357 357 355 349 342 340 340 339 339 338 336 341 344 340 341 346 347 349 350 349 350 351 350 347 345 342 341 339 339 338
288 290 292 293 294 296 299 301 303 306 307 308 306 303 305 308 310 314 317 318 318 318 319 320 320 320 321 323 324 326 328 330 332 335 336 337 337 337 337 337 338 340 342 343 344 344 343 341 338 338 340 340 343 348 348 349 351 354 356 357 354 348 341 339 339 338 338 339 337 339 344 343 343 346 349 350 351 349 350 352 351 348 346 345 344 343 341 339
287 288 289 291 292 294 296 299 302 304 306 307 305 303 303 305 308 312 316 317 317 317 317 318 319 319 318 319 320 322 324 326 329 331 333 334 335 335 335 335 335 338 340 342 343 343 342 340 337 337 341 342 342 344 347 348 349 351 355 357 353 346 340 338 338 337 337 338 338 340 345 348 347 348 350 350 349 349 351 355 353 350 349 348 346 345 342 340
285 286 287 288 290 292 294 297 299 302 304 306 305 303 302 304 306 310 314 316 316 316 316 317 317 317 317 316 317 318 320 323 325 327 329 331 333 333 333 333 333 335 338 340 341 342 341 339 337 337 340 342 340 340 343 346 347 349 353 356 352 344 340 338 337 337 338 339 343 345 346 352 355 351 349 349 349 350 352 354 352 349 347 346 344 343 342 341
283 284 285 286 288 291 292 295 297 299 303 305 305 304 303 303 305 308 311 312 313 313 314 315 316 316 315 315 315 315 316 319 321 323 325 328 330 332 331 331 332 333 336 338 339 340 340 338 338 338 339 340 339 338 341 344 345 349 353 354 350 343 340 338 335 336 339 343 349 350 348 352 356 354 350 349 348 348 349 350 349 346 344 343 341 341 340 340
281 282 284 285 287 289 290 291 293 297 300 302 304 305 303 303 304 307 309 309 309 309 310 311 313 314 314 314 314 314 314 316 317 319 322 325 328 330 330 330 331 332 335 337 337 339 340 337 337 339 338 338 336 335 340 343 344 349 354 352 348 342 340 338 335 336 341 346 349 350 350 351 352 353 351 347 344 344 344 346 345 343 341 340 340 339 339 338
280 281 283 285 287 288 288 289 291 294 296 299 302 304 303 302 304 307 308 307 306 306 306 308 310 311 312 313 313 314 314 315 316 317 319 322 325 327 328 329 330 330 333 335 335 337 339 336 336 338 338 337 334 333 337 341 345 351 353 350 345 342 341 337 334 335 341 345 346 349 351 350 349 349 349 344 341 340 341 343 343 341 340 339 339 339 338 337
278 280 283 285 287 288 288 288 290 292 293 296 300 303 302 302 305 307 307 306 305 305 305 305 306 308 310 311 312 314 314 314 315 316 317 320 323 324 326 328 328 329 331 333 333 335 338 335 333 336 339 337 334 332 335 340 346 351 352 348 343 342 341 337 332 333 338 341 343 346 347 348 346 344 344 343 341 340 340 341 342 341 340 340 339 339 338 336
280 283 285 286 286 286 286 287 288 289 290 294 298 301 302 303 305 305 305 306 305 305 305 305 305 307 308 309 310 312 312 313 314 315 317 319 321 322 324 326 327 328 330 331 332 334 336 334 331 334 338 337 335 334 335 340 347 350 349 346 342 341 340 336 331 332 335 338 342 344 343 344 343 339 340 342 342 341 339 340 342 341 341 341 340 340 338 336
Height
5823 5824 5826 5827 5828 5829 5830 5831 5832 5833 5833 5834 5834 5834 5834 5834 5834 5833 5833 5832 5831 5830 5829 5827 5826 5825 5824 5823 5822 5820 5818 5816 5813 5815 5819 5817 5813 5809 5807 5804 5801 5798 5795 5791 5787 5785 5783 5782 5782 5781 5781 5781 5782 5783 5784 5786 5788 5790 5791 5792 5793 5795 5796 5796 5797 5797 5797 5797 5796 5796 5796 5796 5796 5796 5797 5797 5797 5797 5796 5796 5796 5795 5795 5795 5795 5795 5794 5794
5826 5828 5829 5830 5831 5832 5833 5834 5834 5835 5835 5836 5836 5836 5836 5835 5835 5834 5834 5833 5832 5831 5830 5828 5827 5826 5825 5824 5824 5822 5820 5816 5813 5815 5818 5815 5812 5811 5809 5806 5803 5799 5797 5793 5788 5785 5783 5782 5781 5781 5781 5781 5781 5782 5783 5784 5785 5787 5788 5790 5791 5792 5793 5794 5794 5793 5793 5793 5793 5793 5793 5793 5793 5793 5793 5793 5793 5793 5793 5793 5792 5791 5791 5791 5790 5790 5790 5790
5831 5832 5833 5834 5835 5835 5836 5836 5837 5837 5837 5838 5838 5837 5837 5836 5836 5835 5835 5834 5833 5832 5831 5830 5828 5827 5826 5825 5824 5824 5821 5816 5814 5818 5818 5815 5813 5811 5809 5807 5804 5801 5799 5795 5791 5788 5785 5783 5782 5781 5781 5781 5781 5781 5782 5783 5784 5785 5786 5787 5788 5789 5790 5790 5790 5790 5790 5790 5790 5790 5791 5791 5790 5790 5790 5790 5790 5790 5789 5789 5788 5788 5787 5786 5786 5785 5785 5785
5835 5836 5837 5837 5838 5838 5839 5839 5839 5839 5839 5839 5839 5839 5838 5838 5837 5836 5836 5835 5834 5833 5832 5831 5829 5828 5827 5826 5826 5825 5822 5819 5819 5820 5817 5815 5814 5812 5809 5807 5804 5802 5800 5797 5794 5791 5789 5786 5784 5782 5781 5781 5781 5782 5782 5782 5783 5784 5785 5785 5786 5787 5787 5788 5788 5788 5789 5789 5789 5788 5789 5788 5788 5788 5788 5787 5787 5787 5786 5785 5785 5784 5783 5782 5781 5781 5780 5780
5839 5839 5840 5840 5841 5841 5841 5841 5841 5841 5841 5841 5840 5840 5840 5839 5838 5838 5837 5836 5835 5834 5833 5832 5831 5830 5829 5828 5827 5827 5823 5820 5821 5819 5817 5816 5814 5812 5810 5807 5805 5803 5800 5798 5797 5794 5792 5790 5787 5785 5784 5783 5782 5782 5782 5783 5783 5783 5784 5784 5784 5785 5785 5786 5786 5786 5786 5786 5786 5786 5786 5786 5785 5785 5785 5785 5784 5783 5783 5782 5781 5781 5780 5779 5778 5777 5776 5776
5842 5843 5843 5843 5843 5844 5844 5844 5843 5843 5843 5843 5843 5842 5842 5841 5840 5839 5839 5838 5837 5836 5835 5834 5833 5831 5830 5829 5828 5827 5823 5821 5822 5820 5819 5817 5815 5813 5811 5808 5806 5804 5801 5800 5799 5797 5795 5794 5791 5788 5786 5785 5784 5784 5784 5784 5783 5783 5783 5783 5784 5784 5784 5784 5784 5784 5784 5784 5784 5784 5783 5783 5783 5782 5782 5781 5781 5780 5780 5779 5778 5777 5776 5775 5774 5773 5773 5772
5845 5846 5846 5846 5846 5846 5846 5846 5846 5846 5845 5845 5845 5844 5844 5843 5842 5841 5840 5839 5838 5837 5836 5835 5834 5833 5832 5831 5829 5827 5824 5824 5824 5822 5820 5818 5816 5814 5812 5809 5807 5805 5803 5802 5801 5799 5797 5796 5794 5791 5789 5788 5788 5786 5785 5785 5784 5784 5784 5783 5783 5783 5783 5783 5783 5783 5783 5782 5782 5782 5781 5781 5780 5780 5779 5779 5778 5777 5776 5775 5774 5773 5772 5771 5770 5769 5768 5767
5848 5849 5849 5849 5849 5849 5849 5849 5848 5848 5848 5847 5847 5846 5846 5845 5844 5843 5842 5841 5840 5839 5838 5836 5835 5834 5833 5833 5830 5827 5825 5826 5825 5823 5821 5819 5818 5816 5813 5811 5810 5808 5806 5804 5803 5800 5799 5798 5796 5794 5791 5791 5791 5788 5787 5787 5786 5785 5785 5784 5784 5783 5783 5782 5782 5781 5781 5781 5780 5780 5779 5779 5778 5778 5777 5776 5775 5774 5773 5772 5771 5770 5768 5767 5766 5765 5764 5763
5851 5851 5851 5851 5851 5851 5851 5850 5850 5850 5849 5849 5849 5848 5847 5847 5846 5845 5844 5843 5841 5840 5839 5838 5837 5836 5835 5833 5830 5827 5828 5828 5826 5824 5822 5820 5819 5817 5815 5813 5812 5810 5808 5806 5803 5802 5801 5800 5798 5796 5794 5794 5793 5790 5789 5789 5788 5787 5786 5785 5785 5784 5783 5783 5782 5781 5781 5780 5779 5779 5778 5777 5776 5775 5775 5774 5773 5771 5770 5769 5767 5766 5765 5764 5762 5761 5760 5759
5854 5853 5853 5853 5853 5853 5852 5852 5852 5851 5851 5851 5850 5849 5849 5848 5847 5846 5845 5844 5842 5842 5840 5840 5838 5836 5835 5832 5829 5829 5830 5828 5826 5824 5823 5822 5820 5817 5816 5815 5813 5811 5810 5808 5806 5805 5803 5802 5800 5798 5797 5796 5794 5793 5791 5790 5790 5789 5788 5787 5786 5785 5784 5783 5783 5782 5781 5780 5779 5778 5777 5776 5775 5774 5773 5772 5771 5769 5768 5766 5765 5763 5761 5760 5759 5757 5756 5755
5856 5856 5855 5855 5855 5854 5854 5854 5853 5853 5853 5852 5851 5851 5850 5849 5848 5847 5846 5845 5844 5843 5842 5840 5838 5837 5835 5832 5831 5832 5831 5828 5826 5825 5824 5822 5820 5819 5818 5816 5814 5813 5811 5810 5808 5807 5805 5804 5802 5800 5800 5798 5795 5795 5793 5792 5792 5790 5789 5788 5787 5786 5785 5784 5783 5782 5781 5780 5779 5778 5777 5776 5774 5773 5772 5771 5769 5768 5766 5764 5763 5761 5759 5757 5756 5754 5752 5751
5858 5858 5857 5857 5857 5856 5856 5855 5855 5855 5854 5853 5853 5852 5851 5850 5850 5849 5847 5846 5845 5844 5842 5841 5839 5838 5835 5833 5834 5833 5830 5829 5828 5826 5825 5823 5822 5821 5819 5818 5816 5814 5813 5811 5810 5808 5806 5805 5803 5802 5801 5799 5797 5797 5796 5795 5793 5792 5791 5790 5789 5788 5786 5785 5784 5783 5782 5781 5779 5778 5776 5775 5774 5772 5771 5769 5768 5766 5765 5763 5761 5759 5757 5755 5754 5752 5750 5748
5860 5860 5859 5859 5859 5858 5858 5857 5857 5856 5855 5855 5854 5853 5853 5852 5851 5850 5849 5848 5846 5845 5844 5842 5840 5839 5836 5835 5835 5833 5832 5831 5830 5828 5826 5825 5824 5822 5821 5819 5817 5816 5814 5813 5811 5810 5808 5806 5804 5803 5802 5800 5799 5799 5797 5796 5795 5793 5792 5791 5790 5789 5787 5786 5785 5784 5782 5781 5779 5778 5777 5775 5774 5772 5771 5769 5767 5765 5763 5761 5760 5758 5756 5754 5752 5750 5748 5746
5862 5862 5862 5861 5861 5860 5860 5859 5858 5857 5857 5856 5855 5854 5854 5853 5852 5851 5850 5848 5847 5846 5845 5843 5842 5840 5838 5838 5837 5835 5834 5833 5831 5829 5827 5826 5825 5823 5822 5820 5819 5817 5816 5814 5812 5811 5809 5807 5806 5805 5803 5802 5801 5799 5798 5797 5796 5794 5793 5792 5791 5789 5788 5787 5786 5784 5783 5781 5779 5778 5776 5775 5774 5772 5770 5768 5766 5764 5762 5760 5758 5756 5754 5752 5750 5748 5746 5744
5864 5864 5864 5863 5863 5862 5861 5861 5860 5859 5858 5857 5856 5856 5855 5854 5853 5852 5850 5849 5848 5847 5846 5844 5843 5842 5840 5839 5838 5836 5834 5832 5831 5830 5828 5827 5826 5824 5823 5821 5820 5818 5816 5815 5813 5811 5810 5809 5807 5806 5804 5803 5802 5801 5799 5798 5797 5796 5794 5793 5792 5790 5789 5787 5786 5784 5783 5781 5779 5777 5775 5774 5772 5771 5769 5767 5765 5763 5761 5759 5757 5755 5753 5751 5748 5746 5744 5742
5866 5866 5865 5865 5864 5863 5863 5862 5861 5860 5859 5858 5858 5857 5856 5855 5854 5853 5852 5850 5850 5848 5847 5845 5844 5842 5841 5840 5838 5835 5834 5833 5832 5831 5829 5828 5826 5825 5823 5822 5820 5819 5817 5815 5814 5812 5811 5810 5808 5807 5806 5804 5803 5802 5800 5799 5797 5796 5794 5793 5792 5790 5789 5787 5786 5784 5782 5781 5779 5776 5775 5773 5771 5769 5768 5766 5764 5762 5759 5757 5755 5752 5750 5748 5746 5743 5741 5739
5868 5867 5867 5866 5865 5865 5864 5863 5862 5862 5861 5860 5859 5858 5857 5856 5855 5854 5852 5851 5851 5849 5848 5846 5844 5843 5842 5840 5838 5837 5836 5835 5833 5831 5830 5828 5827 5825 5824 5823 5821 5819 5818 5816 5815 5814 5812 5811 5810 5808 5806 5805 5804 5802 5801 5799 5797 5796 5794 5793 5791 5789 5788 5786 5785 5783 5781 5780 5778 5776 5774 5772 5770 5768 5765 5764 5762 5760 5757 5755 5752 5750 5747 5745 5743 5740 5738 5736
5869 5869 5868 5867 5867 5866 5865 5865 5864 5863 5862 5861 5860 5859 5858 5857 5856 5854 5853 5852 5851 5849 5848 5846 5844 5843 5842 5840 5839 5838 5837 5835 5833 5832 5830 5829 5827 5826 5824 5823 5821 5821 5819 5817 5816 5814 5813 5812 5810 5807 5806 5805 5804 5803 5801 5799 5798 5796 5794 5793 5791 5789 5787 5785 5784 5782 5780 5779 5777 5775 5773 5771 5768 5766 5764 5761 5759 5756 5754 5751 5749 5747 5744 5742 5739 5737 5734 5732
5871 5870 5870 5869 5868 5868 5867 5866 5865 5864 5863 5862 5861 5860 5859 5858 5857 5855 5854 5853 5850 5849 5848 5847 5846 5845 5843 5841 5840 5838 5836 5835 5834 5832 5831 5829 5827 5826 5825 5823 5822 5820 5818 5817 5815 5814 5814 5811 5808 5806 5806 5806 5804 5803 5801 5799 5797 5796 5794 5792 5790 5788 5786 5785 5783 5781 5779 5777 5775 5774 5772 5769 5767 5764 5762 5760 5757 5754 5752 5749 5746 5744 5741 5738 5736 5733 5730 5728
5872 5872 5871 5870 5870 5869 5868 5867 5866 5865 5864 5863 5862 5861 5859 5858 5857 5856 5854 5852 5851 5851 5850 5848 5847 5845 5843 5841 5840 5838 5836 5835 5834 5832 5830 5829 5828 5826 5824 5823 5822 5819 5818 5817 5816 5815 5813 5809 5808 5808 5807 5806 5804 5802 5800 5798 5796 5795 5793 5791 5789 5787 5785 5784 5783 5780 5778 5776 5774 5772 5770 5767 5765 5762 5760 5757 5755 5752 5750 5747 5743 5740 5737 5735 5732 5729 5726 5723
5874 5873 5872 5872 5871 5870 5869 5868 5867 5866 5865 5864 5863 5862 5860 5859 5857 5856 5855 5854 5853 5852 5850 5848 5846 5844 5843 5841 5839 5838 5836 5835 5833 5831 5830 5829 5827 5826 5824 5823 5821 5820 5819 5817 5816 5814 5812 5810 5810 5809 5807 5805 5803 5801 5799 5797 5795 5793 5791 5790 5788 5786 5784 5782 5781 5779 5777 5774 5772 5770 5767 5765 5762 5759 5757 5754 5751 5749 5746 5743 5740 5737 5734 5731 5728 5725 5722 5719
5875 5874 5874 5873 5872 5871 5870 5869 5868 5867 5866 5865 5863 5862 5861 5859 5858 5857 5855 5854 5853 5851 5850 5848 5846 5844 5842 5840 5838 5837 5835 5833 5831 5830 5829 5828 5827 5825 5824 5823 5821 5820 5819 5817 5815 5814 5812 5811 5810 5808 5806 5805 5802 5800 5798 5796 5794 5792 5790 5789 5787 5785 5783 5781 5779 5777 5775 5772 5770 5768 5765 5763 5760 5757 5754 5751 5748 5744 5742 5739 5736 5733 5730 5727 5724 5721 5718 5715
5876 5875 5875 5874 5873 5872 5871 5870 5869 5868 5867 5865 5864 5863 5861 5860 5858 5857 5856 5854 5852 5851 5849 5848 5846 5844 5842 5840 5838 5836 5834 5833 5831 5830 5829 5827 5826 5825 5824 5822 5821 5820 5818 5816 5816 5814 5813 5811 5809 5807 5805 5803 5801 5799 5797 5795 5793 5791 5790 5788 5786 5785 5783 5780 5778 5776 5774 5771 5769 5766 5763 5761 5758 5755 5751 5748 5744 5741 5738 5734 5731 5728 5725 5723 5720 5717 5714 5711
5877 5876 5875 5874 5874 5873 5872 5871 5870 5869 5867 5866 5865 5863 5862 5860 5859 5857 5856 5854 5852 5851 5849 5848 5846 5844 5842 5840 5838 5836 5835 5833 5832 5830 5829 5828 5826 5825 5824 5823 5821 5819 5818 5817 5816 5814 5812 5810 5807 5806 5804 5802 5800 5798 5796 5794 5792 5790 5789 5787 5785 5783 5782 5779 5777 5775 5773 5770 5767 5765 5762 5758 5755 5751 5748 5745 5741 5738 5735 5731 5728 5724 5721 5719 5716 5713 5710 5707
5877 5877 5876 5875 5874 5873 5872 5871 5870 5869 5868 5867 5865 5864 5862 5861 5859 5858 5856 5854 5853 5851 5850 5848 5846 5845 5843 5841 5839 5837 5835 5833 5832 5831 5830 5828 5827 5826 5824 5823 5821 5820 5818 5817 5815 5813 5810 5808 5807 5805 5803 5801 5799 5797 5795 5793 5791 5790 5788 5786 5784 5782 5780 5778 5776 5774 5771 5768 5765 5763 5760 5756 5752 5749 5745 5741 5738 5734 5731 5727 5724 5721 5718 5715 5712 5709 5706 5704
5878 5877 5876 5875 5875 5874 5872 5871 5870 5869 5868 5866 5865 5864 5862 5861 5859 5858 5856 5855 5853 5851 5850 5848 5847 5845 5843 5841 5839 5837 5836 5834 5833 5831 5830 5828 5827 5826 5824 5822 5821 5819 5818 5816 5814 5812 5810 5808 5806 5804 5802 5801 5799 5796 5794 5792 5790 5788 5787 5785 5783 5781 5778 5776 5774 5772 5769 5766 5763 5760 5757 5753 5749 5745 5742 5738 5734 5730 5726 5723 5720 5716 5713 5710 5707 5705 5702 5700
5878 5877 5876 5876 5875 5874 5873 5872 5870 5869 5868 5867 5865 5864 5862 5861 5859 5858 5856 5855 5853 5852 5850 5848 5847 5845 5843 5841 5839 5838 5836 5834 5833 5831 5829 5828 5827 5825 5824 5822 5820 5818 5817 5815 5813 5811 5809 5808 5806 5804 5802 5800 5798 5796 5794 5791 5789 5787 5785 5783 5781 5779 5777 5774 5772 5770 5767 5764 5760 5757 5753 5749 5745 5741 5738 5734 5729 5725 5722 5718 5715 5711 5708 5706 5703 5701 5699 5696
5878 5877 5876 5876 5875 5874 5873 5872 5870 5869 5868 5866 5865 5864 5862 5861 5859 5858 5856 5855 5853 5852 5850 5848 5846 5844 5843 5841 5839 5837 5835 5834 5832 5830 5829 5828 5826 5825 5823 5821 5819 5818 5816 5814 5812 5811 5809 5808 5806 5804 5802 5799 5797 5795 5792 5790 5788 5785 5783 5781 5779 5777 5774 5772 5769 5766 5763 5760 5757 5753 5749 5745 5741 5737 5733 5729 5725 5721 5717 5714 5711 5708 5705 5703 5700 5698 5695 5693
5877 5877 5876 5875 5875 5874 5873 5871 5870 5869 5868 5866 5865 5864 5862 5861 5859 5858 5856 5854 5853 5851 5849 5848 5846 5844 5843 5841 5839 5837 5835 5834 5833 5831 5830 5828 5826 5824 5823 5821 5819 5817 5816 5814 5812 5811 5809 5807 5805 5803 5801 5798 5796 5793 5790 5788 5786 5784 5782 5779 5777 5774 5772 5769 5766 5763 5761 5757 5754 5750 5745 5741 5736 5732 5728 5724 5720 5717 5713 5710 5707 5705 5703 5700 5697 5695 5692 5690
5877 5876 5876 5875 5874 5873 5872 5871 5870 5869 5867 5866 5865 5863 5862 5861 5859 5858 5856 5854 5852 5850 5849 5847 5846 5844 5843 5841 5838 5837 5835 5834 5833 5831 5830 5828 5826 5825 5822 5820 5818 5817 5816 5814 5812 5811 5809 5807 5804 5802 5799 5797 5794 5791 5789 5786 5784 5782 5779 5777 5775 5773 5770 5767 5764 5760 5757 5754 5750 5745 5740 5736 5732 5728 5723 5720 5716 5713 5710 5708 5705 5702 5700 5697 5694 5691 5689 5686
5876 5876 5875 5875 5874 5873 5872 5871 5869 5868 5867 5865 5864 5863 5861 5860 5859 5857 5855 5854 5852 5850 5849 5847 5846 5844 5842 5840 5839 5837 5835 5833 5832 5830 5828 5826 5824 5822 5820 5819 5818 5817 5816 5814 5812 5810 5808 5805 5803 5800 5798 5795 5793 5790 5787 5785 5782 5779 5777 5775 5773 5771 5768 5764 5760 5757 5753 5749 5745 5740 5735 5731 5728 5724 5720 5717 5714 5711 5708 5705 5703 5700 5697 5694 5692 5689 5686 5683
5876 5875 5874 5874 5873 5872 5871 5870 5869 5867 5866 5865 5863 5862 5861 5859 5858 5856 5855 5853 5851 5850 5848 5847 5845 5844 5842 5841 5839 5837 5836 5834 5832 5830 5829 5827 5825 5824 5822 5821 5819 5817 5816 5814 5812 5809 5806 5804 5802 5799 5796 5793 5791 5788 5786 5783 5781 5778 5776 5773 5771 5768 5764 5761 5757 5753 5748 5744 5740 5736 5731 5728 5725 5721 5717 5714 5711 5708 5705 5703 5700 5697 5695 5692 5689 5686 5683 5680
5875 5874 5873 5873 5872 5871 5870 5869 5868 5867 5865 5864 5863 5861 5860 5858 5857 5856 5854 5852 5851 5849 5848 5846 5845 5843 5842 5840 5839 5837 5836 5834 5832 5830 5829 5827 5826 5824 5822 5820 5818 5816 5814 5812 5810 5808 5805 5803 5800 5797 5794 5792 5789 5786 5784 5782 5779 5777 5774 5771 5768 5765 5762 5759 5755 5751 5746 5741 5737 5733 5729 5725 5722 5718 5714 5711 5708 5705 5702 5700 5697 5695 5692 5690 5687 5684 5681 5678
5874 5873 5872 5871 5871 5870 5869 5868 5867 5866 5865 5863 5862 5860 5859 5857 5856 5855 5853 5852 5850 5848 5847 5845 5844 5842 5841 5839 5838 5836 5834 5833 5831 5829 5827 5825 5823 5822 5820 5819 5817 5815 5813 5811 5809 5807 5804 5801 5798 5795 5793 5790 5787 5784 5782 5779 5777 5774 5771 5768 5765 5762 5760 5756 5752 5748 5744 5739 5734 5730 5726 5723 5719 5715 5712 5708 5705 5703 5700 5698 5695 5693 5690 5687 5684 5681 5678 5676
5873 5872 5871 5870 5870 5869 5868 5867 5866 5865 5864 5862 5861 5860 5858 5857 5855 5854 5852 5851 5849 5847 5846 5844 5843 5841 5840 5838 5837 5835 5834 5832 5830 5828 5826 5824 5823 5821 5820 5818 5816 5814 5812 5810 5808 5805 5803 5800 5796 5793 5791 5787 5785 5782 5780 5777 5775 5772 5768 5765 5762 5760 5757 5753 5749 5745 5740 5736 5732 5727 5723 5720 5716 5713 5709 5706 5703 5700 5698 5696 5693 5690 5687 5684 5682 5679 5676 5674
5871 5871 5870 5869 5869 5868 5867 5866 5865 5864 5863 5861 5860 5859 5857 5856 5855 5853 5852 5850 5848 5847 5845 5844 5842 5841 5839 5838 5836 5834 5833 5831 5829 5827 5825 5824 5822 5820 5819 5817 5815 5813 5811 5808 5806 5803 5800 5798 5795 5791 5788 5785 5783 5780 5778 5775 5772 5769 5766 5763 5760 5756 5754 5751 5747 5742 5737 5732 5728 5724 5720 5717 5714 5710 5707 5703 5701 5699 5696 5694 5691 5688 5685 5682 5680 5677 5675 5672
5870 5869 5869 5868 5867 5866 5865 5865 5864 5863 5861 5860 5859 5857 5856 5855 5854 5852 5851 5849 5847 5846 5844 5843 5841 5840 5838 5837 5835 5834 5832 5830 5828 5826 5824 5822 5820 5819 5817 5815 5813 5811 5809 5807 5804 5801 5798 5796 5793 5789 5786 5784 5781 5778 5776 5773 5770 5766 5763 5760 5756 5753 5751 5748 5744 5739 5734 5730 5725 5720 5716 5714 5711 5708 5705 5702 5699 5697 5694 5691 5688 5685 5683 5680 5677 5675 5673 5670
5868 5868 5867 5866 5866 5865 5864 5863 5862 5861 5860 5859 5857 5856 5855 5854 5852 5851 5849 5848 5846 5845 5843 5842 5840 5839 5837 5836 5834 5833 5831 5829 5827 5825 5823 5821 5819 5817 5815 5813 5811 5809 5807 5805 5802 5799 5796 5793 5791 5787 5784 5782 5779 5777 5775 5772 5768 5764 5760 5756 5752 5749 5747 5744 5740 5735 5731 5727 5724 5719 5714 5711 5709 5705 5703 5700 5697 5695 5692 5689 5686 5683 5681 5678 5676 5673 5671 5667
5867 5866 5865 5865 5864 5863 5862 5861 5860 5859 5858 5857 5856 5855 5853 5852 5851 5849 5848 5847 5845 5844 5842 5841 5839 5838 5836 5835 5833 5832 5830 5827 5825 5823 5821 5819 5817 5815 5813 5811 5809 5807 5805 5803 5800 5797 5794 5791 5789 5786 5782 5780 5778 5776 5773 5769 5766 5762 5757 5752 5749 5746 5744 5740 5736 5732 5727 5723 5721 5717 5712 5709 5707 5704 5701 5698 5695 5692 5690 5687 5685 5682 5679 5677 5674 5671 5668 5665
5865 5864 5863 5863 5862 5861 5861 5860 5859 5858 5857 5856 5854 5853 5852 5851 5849 5848 5847 5845 5844 5842 5841 5839 5838 5836 5835 5833 5832 5830 5828 5826 5824 5821 5819 5817 5815 5813 5810 5809 5807 5805 5803 5801 5798 5795 5792 5789 5787 5784 5781 5778 5777 5774 5771 5767 5763 5760 5755 5750 5747 5743 5740 5737 5733 5728 5724 5719 5717 5715 5710 5707 5705 5702 5699 5696 5693 5690 5688 5686 5683 5680 5678 5675 5672 5669 5665 5662
5863 5862 5861 5861 5860 5859 5859 5858 5857 5856 5855 5854 5853 5852 5850 5849 5848 5847 5845 5844 5843 5841 5840 5838 5836 5835 5833 5832 5830 5828 5826 5824 5822 5820 5817 5815 5813 5811 5809 5807 5805 5803 5801 5799 5796 5793 5790 5787 5784 5782 5779 5777 5775 5773 5769 5765 5761 5757 5753 5749 5745 5741 5738 5734 5730 5725 5721 5717 5715 5712 5709 5706 5703 5700 5698 5695 5691 5689 5686 5684 5681 5678 5675 5672 5669 5666 5663 5660
5860 5860 5859 5859 5858 5857 5857 5856 5855 5854 5853 5852 5851 5850 5849 5848 5846 5845 5844 5843 5841 5840 5838 5837 5835 5833 5832 5830 5828 5827 5825 5823 5821 5819 5816 5814 5811 5809 5807 5805 5803 5801 5799 5797 5794 5792 5788 5785 5782 5780 5778 5775 5773 5771 5767 5762 5759 5754 5750 5746 5742 5739 5736 5732 5728 5723 5719 5715 5713 5711 5708 5704 5702 5699 5695 5693 5690 5687 5684 5682 5679 5676 5673 5670 5666 5663 5660 5657
5858 5857 5857 5856 5856 5855 5854 5853 5852 5852 5851 5850 5849 5848 5847 5846 5845 5844 5842 5841 5840 5839 5837 5836 5834 5832 5831 5829 5827 5826 5824 5822 5820 5818 5816 5813 5811 5808 5806 5804 5802 5800 5798 5795 5793 5790 5787 5783 5780 5778 5776 5773 5771 5769 5764 5760 5756 5751 5747 5743 5740 5737 5734 5730 5726 5721 5717 5714 5711 5709 5706 5702 5700 5697 5693 5691 5688 5685 5682 5680 5677 5674 5671 5668 5665 5662 5658 5655
5855 5855 5854 5854 5853 5853 5852 5851 5850 5849 5848 5848 5847 5846 5845 5844 5843 5842 5841 5840 5839 5837 5836 5834 5833 5831 5830 5828 5826 5825 5823 5821 5819 5817 5815 5812 5810 5807 5805 5802 5800 5799 5796 5794 5791 5789 5786 5782 5778 5776 5774 5772 5769 5767 5762 5758 5754 5749 5746 5742 5738 5735 5732 5728 5724 5720 5716 5712 5709 5707 5705 5701 5698 5695 5692 5689 5686 5683 5681 5678 5675 5672 5669 5666 5663 5660 5656 5653
5853 5852 5852 5851 5851 5850 5849 5848 5848 5847 5846 5845 5845 5844 5843 5842 5841 5840 5839 5838 5837 5836 5834 5833 5832 5830 5828 5827 5825 5823 5822 5820 5818 5816 5813 5811 5808 5806 5803 5801 5799 5797 5794 5792 5789 5786 5783 5780 5776 5774 5772 5769 5766 5764 5760 5755 5751 5747 5744 5740 5736 5734 5731 5726 5723 5718 5714 5711 5708 5705 5703 5700 5696 5693 5690 5688 5685 5682 5679 5677 5674 5671 5668 5664 5661 5657 5654 5651
5850 5849 5849 5848 5848 5847 5847 5846 5845 5844 5844 5843 5842 5841 5841 5840 5839 5838 5837 5836 5835 5834 5833 5831 5830 5828 5827 5825 5823 5822 5820 5818 5816 5814 5812 5809 5807 5804 5802 5799 5797 5795 5792 5790 5787 5784 5781 5778 5774 5771 5769 5767 5763 5760 5757 5753 5749 5745 5741 5737 5734 5732 5729 5724 5720 5716 5713 5710 5706 5703 5700 5698 5695 5692 5689 5686 5684 5681 5678 5676 5673 5669 5666 5662 5659 5655 5652 5648
5846 5846 5846 5845 5845 5845 5844 5843 5842 5842 5841 5840 5839 5839 5838 5837 5836 5836 5835 5834 5833 5832 5830 5829 5828 5826 5824 5823 5821 5819 5817 5816 5814 5812 5809 5807 5805 5802 5800 5797 5795 5792 5790 5788 5785 5782 5779 5776 5773 5769 5767 5765 5761 5758 5755 5751 5747 5743 5738 5734 5732 5729 5726 5722 5718 5714 5711 5707 5704 5701 5698 5696 5694 5691 5688 5685 5682 5679 5677 5674 5671 5667 5664 5660 5657 5653 5649 5645
5843 5843 5842 5842 5842 5841 5841 5840 5840 5839 5838 5838 5837 5836 5836 5835 5834 5833 5832 5831 5830 5829 5828 5826 5825 5824 5822 5820 5818 5816 5815 5813 5811 5809 5807 5805 5802 5800 5797 5795 5792 5790 5788 5786 5783 5780 5777 5774 5771 5767 5765 5763 5759 5755 5752 5749 5744 5740 5735 5732 5729 5727 5723 5719 5715 5712 5709 5705 5702 5700 5696 5694 5692 5690 5686 5683 5680 5678 5675 5672 5669 5665 5662 5658 5655 5651 5646 5642
5840 5839 5839 5839 5838 5838 5838 5837 5837 5836 5836 5835 5834 5833 5833 5832 5831 5830 5829 5828 5827 5826 5825 5823 5822 5821 5819 5817 5815 5814 5812 5810 5808 5806 5804 5802 5800 5797 5795 5793 5790 5788 5786 5783 5781 5778 5775 5772 5769 5766 5763 5760 5757 5753 5750 5747 5742 5737 5733 5729 5727 5724 5721 5717 5713 5710 5707 5704 5701 5698 5695 5692 5690 5688 5685 5682 5679 5676 5673 5670 5667 5663 5660 5656 5652 5648 5644 5639
5836 5836 5836 5835 5835 5835 5834 5834 5833 5833 5833 5832 5831 5831 5830 5829 5828 5828 5827 5826 5824 5823 5821 5820 5819 5817 5816 5814 5812 5811 5809 5807 5805 5804 5801 5800 5797 5795 5793 5790 5787 5785 5783 5781 5779 5776 5773 5770 5767 5765 5761 5758 5755 5751 5748 5745 5741 5735 5731 5728 5725 5722 5719 5715 5711 5708 5706 5703 5699 5696 5693 5691 5688 5686 5683 5681 5677 5674 5671 5668 5664 5661 5657 5653 5649 5645 5640 5636
5832 5832 5832 5832 5832 5832 5831 5831 5830 5830 5830 5829 5829 5828 5827 5826 5826 5825 5824 5823 5821 5820 5818 5817 5815 5814 5812 5811 5809 5808 5806 5804 5803 5801 5799 5797 5795 5792 5790 5788 5785 5782 5780 5778 5776 5774 5771 5768 5765 5763 5760 5757 5753 5749 5746 5743 5738 5734 5730 5727 5723 5720 5716 5713 5709 5706 5704 5701 5698 5695 5692 5689 5686 5684 5682 5679 5675 5672 5668 5665 5662 5658 5654 5650 5646 5642 5637 5632
5830 5829 5829 5828 5828 5828 5828 5828 5827 5827 5826 5826 5826 5825 5825 5824 5823 5822 5821 5820 5819 5817 5815 5814 5812 5811 5809 5808 5806 5804 5803 5801 5799 5798 5796 5794 5792 5789 5787 5785 5783 5780 5777 5775 5773 5771 5769 5766 5763 5761 5758 5755 5751 5747 5744 5740 5736 5732 5729 5726 5723 5719 5715 5711 5707 5705 5702 5699 5696 5693 5690 5687 5684 5681 5679 5677 5673 5669 5666 5663 5660 5656 5652 5647 5642 5637 5632 5627